| time (UTC) | temp F | wind direction | speed MPH | gust MPH | rain 1hr in | rain 24hr in | rain mn in | humidity % | barometer mb |
| 20260506090016 | 48 | 248 | 1.0 | 7.0 | 0.00 | 0.03 | 0.00 | 59 | 1012.2 |
| 20260506084516 | 49 | 315 | 2.0 | 6.0 | 0.00 | 0.03 | 0.00 | 59 | 1011.5 |
| 20260506083016 | 49 | 315 | 5.0 | 10.0 | 0.00 | 0.03 | 0.00 | 58 | 1011.3 |
| 20260506081516 | 50 | 338 | 5.0 | 9.0 | 0.00 | 0.03 | 0.00 | 57 | 1011.0 |
| 20260506073036 | 49 | 45 | 4.0 | 8.0 | 0.00 | 0.03 | 0.00 | 73 | 1011.4 |
| 20260506071516 | 49 | 23 | 4.0 | 10.0 | 0.00 | 0.03 | 0.00 | 72 | 1011.7 |
| 20260506061516 | 51 | 68 | 5.0 | 11.0 | 0.00 | 0.03 | 0.00 | 68 | 1010.6 |
| 20260506044516 | 57 | 315 | 11.0 | 19.0 | 0.00 | 0.03 | 0.03 | 53 | 1010.4 |
| 20260506043016 | 57 | 315 | 12.0 | 24.0 | 0.00 | 0.03 | 0.03 | 51 | 1009.9 |
| 20260506041556 | 57 | 293 | 13.0 | 19.0 | 0.00 | 0.03 | 0.03 | 50 | 1010.1 |
| 20260506040015 | 58 | 293 | 10.0 | 14.0 | 0.00 | 0.03 | 0.03 | 48 | 1009.5 |
| 20260506034536 | 60 | 270 | 9.0 | 18.0 | 0.00 | 0.03 | 0.03 | 42 | 1009.8 |
| 20260506033016 | 60 | 270 | 7.0 | 17.0 | 0.00 | 0.03 | 0.03 | 46 | 1009.8 |
| 20260506031515 | 60 | 270 | 3.0 | 5.0 | 0.00 | 0.03 | 0.03 | 47 | 1009.7 |
| 20260506030035 | 61 | 270 | 6.0 | 14.0 | 0.00 | 0.03 | 0.03 | 43 | 1009.2 |
| 20260506024516 | 60 | 158 | 4.0 | 15.0 | 0.00 | 0.03 | 0.03 | 45 | 1008.5 |
| 20260506023015 | 59 | 180 | 1.0 | 6.0 | 0.00 | 0.03 | 0.03 | 52 | 1008.5 |
| 20260506021517 | 59 | 158 | 4.0 | 9.0 | 0.00 | 0.03 | 0.03 | 52 | 1007.9 |
| 20260506020017 | 59 | 113 | 4.0 | 9.0 | 0.00 | 0.03 | 0.03 | 53 | 1007.9 |
| 20260506014517 | 60 | 113 | 3.0 | 5.0 | 0.00 | 0.03 | 0.03 | 52 | 1008.1 |
| 20260506013017 | 61 | 68 | 3.0 | 9.0 | 0.00 | 0.03 | 0.03 | 51 | 1007.6 |
| 20260506011536 | 61 | 68 | 5.0 | 9.0 | 0.00 | 0.03 | 0.03 | 52 | 1007.1 |
| 20260506010037 | 61 | 68 | 5.0 | 10.0 | 0.00 | 0.03 | 0.03 | 53 | 1007.1 |
| 20260506004517 | 61 | 45 | 5.0 | 10.0 | 0.00 | 0.03 | 0.03 | 52 | 1007.3 |
| 20260506003017 | 61 | 45 | 6.0 | 12.0 | 0.00 | 0.03 | 0.03 | 52 | 1007.3 |
| 20260506001515 | 62 | 45 | 9.0 | 14.0 | 0.00 | 0.03 | 0.03 | 50 | 1007.3 |
| 20260506000017 | 62 | 23 | 10.0 | 16.0 | 0.00 | 0.03 | 0.03 | 49 | 1006.8 |
| 20260505234557 | 62 | 23 | 11.0 | 18.0 | 0.00 | 0.03 | 0.03 | 51 | 1006.8 |
| 20260505233017 | 61 | 23 | 12.0 | 19.0 | 0.00 | 0.03 | 0.03 | 52 | 1007.1 |
| 20260505231517 | 62 | 23 | 14.0 | 19.0 | 0.00 | 0.03 | 0.03 | 52 | 1007.1 |
| 20260505230117 | 62 | 0 | 14.0 | 23.0 | 0.00 | 0.03 | 0.03 | 52 | 1006.9 |
| 20260505224517 | 62 | 0 | 15.0 | 22.0 | 0.00 | 0.03 | 0.03 | 55 | 1007.3 |
| 20260505223017 | 61 | 338 | 15.0 | 21.0 | 0.00 | 0.03 | 0.03 | 56 | 1007.2 |
| 20260505221517 | 60 | 338 | 15.0 | 21.0 | 0.01 | 0.03 | 0.03 | 61 | 1007.2 |
| 20260505220017 | 60 | 338 | 19.0 | 27.0 | 0.01 | 0.03 | 0.03 | 64 | 1007.2 |
| 20260505214517 | 59 | 338 | 17.0 | 26.0 | 0.01 | 0.03 | 0.03 | 69 | 1007.1 |
| 20260505213017 | 62 | 338 | 14.0 | 20.0 | 0.01 | 0.03 | 0.03 | 54 | 1007.4 |
| 20260505211517 | 64 | 338 | 9.0 | 17.0 | 0.00 | 0.02 | 0.02 | 52 | 1007.3 |
| 20260505210037 | 64 | 0 | 10.0 | 14.0 | 0.00 | 0.02 | 0.02 | 56 | 1007.4 |
| 20260505204517 | 62 | 0 | 12.0 | 17.0 | 0.00 | 0.02 | 0.02 | 60 | 1007.4 |
| 20260505203037 | 61 | 338 | 11.0 | 18.0 | 0.00 | 0.02 | 0.02 | 62 | 1007.4 |
| 20260505201537 | 58 | 315 | 12.0 | 20.0 | 0.00 | 0.02 | 0.02 | 70 | 1007.7 |
| 20260505200017 | 57 | 315 | 15.0 | 24.0 | 0.01 | 0.02 | 0.02 | 67 | 1007.4 |
| 20260505194537 | 59 | 0 | 14.0 | 24.0 | 0.01 | 0.02 | 0.02 | 67 | 1007.6 |
| 20260505193037 | 60 | 0 | 16.0 | 22.0 | 0.01 | 0.02 | 0.02 | 68 | 1007.9 |
| 20260505191517 | 59 | 338 | 8.0 | 19.0 | 0.01 | 0.02 | 0.02 | 71 | 1008.0 |
| 20260505190016 | 61 | 0 | 5.0 | 12.0 | 0.00 | 0.01 | 0.01 | 56 | 1008.9 |
| 20260505184517 | 62 | 135 | 10.0 | 18.0 | 0.00 | 0.01 | 0.01 | 53 | 1008.4 |
| 20260505183017 | 62 | 135 | 12.0 | 17.0 | 0.00 | 0.01 | 0.01 | 52 | 1008.2 |
| 20260505181517 | 61 | 135 | 11.0 | 18.0 | 0.00 | 0.01 | 0.01 | 59 | 1008.6 |
| 20260505180016 | 58 | 90 | 8.0 | 14.0 | 0.00 | 0.01 | 0.01 | 68 | 1008.6 |
| 20260505174516 | 57 | 68 | 7.0 | 13.0 | 0.01 | 0.01 | 0.01 | 72 | 1008.8 |
| 20260505173036 | 56 | 68 | 8.0 | 14.0 | 0.01 | 0.01 | 0.01 | 71 | 1008.5 |
| 20260505171516 | 56 | 45 | 9.0 | 17.0 | 0.01 | 0.01 | 0.01 | 74 | 1008.8 |
| 20260505170016 | 55 | 45 | 10.0 | 18.0 | 0.01 | 0.01 | 0.01 | 74 | 1008.9 |
| 20260505164516 | 56 | 338 | 3.0 | 17.0 | 0.00 | 0.00 | 0.00 | 69 | 1009.1 |
| 20260505163016 | 56 | 270 | 4.0 | 7.0 | 0.00 | 0.00 | 0.00 | 68 | 1009.0 |
| 20260505161517 | 57 | 180 | 4.0 | 7.0 | 0.00 | 0.00 | 0.00 | 65 | 1009.5 |
| 20260505153036 | 58 | 248 | 4.0 | 7.0 | 0.00 | 0.00 | 0.00 | 57 | 1009.7 |
| 20260505151516 | 60 | 270 | 7.0 | 12.0 | 0.00 | 0.00 | 0.00 | 49 | 1010.2 |
| 20260505124516 | 58 | 135 | 2.0 | 3.0 | 0.00 | 0.00 | 0.00 | 48 | 1010.4 |
| 20260505123016 | 59 | 225 | 1.0 | 3.0 | 0.00 | 0.00 | 0.00 | 47 | 1010.4 |
| 20260505121516 | 59 | 225 | 2.0 | 4.0 | 0.00 | 0.00 | 0.00 | 46 | 1010.8 |
| 20260505120016 | 59 | 225 | 4.0 | 6.0 | 0.00 | 0.00 | 0.00 | 46 | 1010.6 |
| 20260505114516 | 59 | 203 | 3.0 | 7.0 | 0.00 | 0.00 | 0.00 | 46 | 1010.7 |
| 20260505113016 | 59 | 113 | 2.0 | 4.0 | 0.00 | 0.00 | 0.00 | 45 | 1010.8 |
| 20260505111516 | 59 | 113 | 3.0 | 6.0 | 0.00 | 0.00 | 0.00 | 44 | 1010.7 |
| 20260505101516 | 60 | 135 | 2.0 | 4.0 | 0.00 | 0.00 | 0.00 | 41 | 1010.9 |
| 20260505100016 | 60 | 135 | 1.0 | 2.0 | 0.00 | 0.00 | 0.00 | 40 | 1010.8 |
| 20260505094536 | 60 | 135 | 1.0 | 2.0 | 0.00 | 0.00 | 0.00 | 41 | 1010.9 |
| 20260505093016 | 60 | 248 | 1.0 | 2.0 | 0.00 | 0.00 | 0.00 | 40 | 1011.0 |
| 20260505091516 | 61 | 0.0 | 3.0 | 0.00 | 0.00 | 0.00 | 40 | 1011.3 |